7 * 24
多渠道服务支持
STARLINK-2102是美国星链计划的低轨互联网卫星,于2021年1月20日发射升空,隶属于SpaceX公司的星链星座组网。它旨在为全球提供高速低延迟宽带互联网服务,尤其覆盖偏远与网络基础设施薄弱区域,是星链大规模低轨星座部署中的一颗组网卫星,推动了星链全球网络布局的进程。
美国
(US)
| 数据来源 | 国际轨道数据 |
| 星历时间: | 2026-03-13T14:29:58+0800 1天前 查看轨道信息 |
| 半长轴: | 6853.349km |
| 偏心率: | 0.0001209 |
| 轨道倾角: | 53.162° |
| 近地点辐角 | 90.970° |
| 升交点赤经 | 9.919° |
| 平近点角 | 269.144° |
| 近地点: | 474.383km |
| 远地点: | 476.041km |
| 周期: | 94.105分钟 |
| 每日圈数: | 15.302012 |